Погода в Сельфоссе

Исландия     63°56′17″N   20°59′36″W
темп.,
°C
ветер,
м/с
пор.,
м/с
влажн.,
%
обл.,
%
осадки,
мм/ч
давл.,
гПа
погр.,
м
27 ноября, сб
сб2700:00−7всв2256100 0.0 102593
03:00−7всв2252100 0.0 1023122
06:00−7св2251100 0.0 1019130
09:00−6св2361100 0.0 1017128
12:00−5ссв3391100 0.5 1014119
15:00−2ссв2392100 0.2 101396
18:00−1ссв2390100 0.3 101265
21:00−1ссв338897 0.0 101364
28 ноября, вс
вс2800:00−1ссв2285100 0.0 101227
03:00−1ссв238187 0.0 101250
06:00−2ссв2381100 0.1 101194
09:00−2св2397100 3.4 1011124
12:00−2св3398100 8.1 1009120
15:00−2св2297100 1.5 100690
18:00−1всв1299100 3.1 100495
21:000св2398100 3.6 1003103
29 ноября, пн
пн2900:000всв2297100 4.0 100252
03:000всв1198100 0.0 100227
06:00+1с2399100 0.0 100374
09:00−1ссз3490100 0.0 100649
12:00−1ссв3487100 0.0 100781
15:00−2св4796100 1.0 1005352
18:00−2св2398100 10.4 1004192
21:00−2ссв2398100 5.2 1003126
30 ноября, вт
вт3000:00−1всв1299100 7.6 100283
03:00−1всв2299100 1.4 1001113
06:00−2св2299100 5.8 1000123
09:00−3ссз2298100 2.9 99955
12:00−1ссв1299100 4.5 99986
15:00−1зюз0198100 1.4 99956
18:00−4ссз349362 1.5 100140
21:00−7ссз459027 0.0 100552
1 декабря, ср
ср100:00−8ссз459166 0.0 101067
03:00−10ссз458754 0.0 101345
06:00−13ссз338713 0.0 101622
09:00−14с338616 0.0 101718
12:00−14с338436 0.0 102020
15:00−14ссв338259 0.0 102023
18:00−10ссв338335 0.0 101836
21:00−9ссв3384100 0.0 101850